Location: Observatorio Las Palmas
(29.0667°N, 110.9333°W)
Time: 20:09:44
(UTC-07:00)

Hubble Space Telescope - Visible Passes

Search period start: 04 May 2015 00:00
Search period end: 14 May 2015 00:00
Orbit: 542 x 546 km, 28.5° (Epoch: 04 May)

Date Brightness Start Highest point End Pass type
(mag) Time Alt. Az. Time Alt. Az. Time Alt. Az.
04 May 0.7 20:16:28 10° W 20:20:38 82° S 20:22:27 32° E visible
04 May 3.8 21:57:49 10° W 21:57:55 11° W 21:57:55 11° W visible
05 May 0.7 20:07:55 10° W 20:12:05 84° S 20:14:25 25° E visible
05 May 3.6 21:49:17 10° W 21:49:53 14° W 21:49:53 14° W visible
06 May 0.7 19:59:22 10° W 20:03:32 83° S 20:06:18 20° E visible
06 May 3.3 21:40:45 10° W 21:41:46 17° W 21:41:46 17° W visible
07 May 0.7 19:50:48 10° W 19:54:58 79° S 19:58:11 16° E visible
07 May 3.0 21:32:15 10° W 21:33:38 19° WSW 21:33:38 19° WSW visible
08 May 0.8 19:42:15 10° W 19:46:24 73° S 19:50:01 13° ESE visible
08 May 2.9 21:23:48 10° W 21:25:28 21° WSW 21:25:28 21° WSW visible
09 May 0.9 19:33:41 10° W 19:37:50 65° S 19:41:51 11° ESE visible
09 May 2.8 21:15:24 10° W 21:17:18 20° WSW 21:17:18 20° WSW visible
10 May 1.1 19:25:09 10° W 19:29:14 56° SSW 19:33:18 10° ESE visible
10 May 2.8 21:07:06 10° WSW 21:09:09 19° SW 21:09:09 19° SW visible
11 May 2.9 20:58:58 10° WSW 21:01:00 16° SW 21:01:00 16° SW visible
12 May 3.2 20:51:11 10° SW 20:52:52 12° SSW 20:52:52 12° SSW visible
